Surface/Precipitation History
05/22/2015 23:03  to  5/23/2015 23:03
Change End Date:
Date/Time
(MDT)
Sf
Temp Chem Water Layer Surface Precipitation
Sf Sub Frz Factor Pct Depth IcePct Cond Salin Type Intens Accum Rate
05/23/2015 23:00 Wet 51.4F - 32F 5 0% 0.00 in 0% 0 mhos 0 Yes - - -
05/23/2015 22:50 Wet 51.3F - 32F 5 0% 0.00 in 0% 0 mhos 0 Yes - - -
05/23/2015 22:45 Wet 51.3F - 32F 5 0% 0.00 in 0% 0 mhos 0 Yes - - -
05/23/2015 22:40 Wet 51.4F - 32F 5 0% 0.00 in 0% 0 mhos 0 None None - -
05/23/2015 22:30 Wet 51.6F - 32F 5 0% 0.00 in 0% 0 mhos 0 None None - -
05/23/2015 22:30 Wet 51.4F - 32F 5 0% 0.00 in 0% 0 mhos 0 None None - -
05/23/2015 22:20 Wet 51.8F - 32F 5 0% 0.00 in 0% 0 mhos 0 None None - -
05/23/2015 22:15 Wet 52.0F - 32F 5 0% 0.00 in 0% 0 mhos 0 None None - -
05/23/2015 22:10 Wet 51.8F - 32F 5 0% 0.00 in 0% 0 mhos 0 Yes - - -
05/23/2015 22:00 Wet 51.6F - 32F 5 0% 0.00 in 0% 0 mhos 0 Yes - - -
05/23/2015 21:59 Wet 51.8F - 32F 5 0% 0.00 in 0% 0 mhos 0 Yes - - -
05/23/2015 21:50 Wet 52.0F - 32F 5 0% 0.00 in 0% 0 mhos 0 Yes - - -
05/23/2015 21:45 Wet 52.0F - 32F 5 0% 0.00 in 0% 0 mhos 0 Yes - - -
05/23/2015 21:40 Wet 52.3F - 32F 5 0% 0.00 in 0% 0 mhos 0 Yes - - -
05/23/2015 21:30 Wet 52.5F - 32F 5 0% 0.00 in 0% 0 mhos 0 Yes - - -
Date/Time
(MDT)
Sf
Temp Chem Water Layer Surface Precipitation
Sf Sub Frz Factor Pct Depth IcePct Cond Salin Type Intens Accum Rate
05/23/2015 21:29 Wet 52.5F - 32F 5 0% 0.00 in 0% 0 mhos 0 Yes - - -
05/23/2015 21:20 Wet 52.5F - 32F 5 0% 0.00 in 0% 0 mhos 0 Yes - - -
05/23/2015 21:15 Wet 52.5F - 32F 5 0% 0.00 in 0% 0 mhos 0 Yes - - -
05/23/2015 21:10 Wet 52.5F - 32F 5 0% 0.00 in 0% 0 mhos 0 Yes - - -
05/23/2015 21:01 Wet 52.9F - 32F 5 0% 0.00 in 0% 0 mhos 0 Yes - - -
05/23/2015 21:00 Wet 52.9F - 32F 5 0% 0.00 in 0% 0 mhos 0 Yes - - -
05/23/2015 20:50 Wet 53.4F - 32F 5 0% 0.00 in 0% 0 mhos 0 Yes - - -
05/23/2015 20:45 Wet 53.6F - 32F 5 0% 0.00 in 0% 0 mhos 0 Yes - - -
05/23/2015 20:40 Wet 53.6F - 32F 5 0% 0.00 in 0% 0 mhos 0 Yes - - -
05/23/2015 20:30 Wet 53.8F - 32F 5 0% 0.00 in 0% 0 mhos 0 Yes - - -
05/23/2015 20:30 Wet 54.0F - 32F 5 0% 0.00 in 0% 0 mhos 0 Yes - - -
05/23/2015 20:20 Wet 54.7F - 32F 5 0% 0.00 in 0% 0 mhos 0 Yes - - -
05/23/2015 20:15 Wet 54.9F - 32F 5 0% 0.00 in 0% 0 mhos 0 Yes - - -
05/23/2015 20:10 Dry 55.6F - - - - - - 0 mhos 0 Yes - - -
05/23/2015 20:00 Dry 55.2F - - - - - - 0 mhos 0 Yes - - -
Date/Time
(MDT)
Sf
Temp Chem Water Layer Surface Precipitation
Sf Sub Frz Factor Pct Depth IcePct Cond Salin Type Intens Accum Rate
05/23/2015 20:00 Dry 55.0F - - - - - - 0 mhos 0 None None - -
05/23/2015 19:50 Dry 56.3F - - - - - - 0 mhos 0 None None - -
05/23/2015 19:45 Wet 56.3F - 32F 5 0% 0.60 in 0% 0 mhos 0 Yes - - -
05/23/2015 19:40 Dry 56.1F - - - - - - 0 mhos 0 Yes - - -
05/23/2015 19:30 Dry 56.3F - - - - - - 0 mhos 0 Yes - - -
05/23/2015 19:30 Dry 56.3F - - - - - - 0 mhos 0 Yes - - -
05/23/2015 19:20 Wet 56.1F - 32F 5 0% 0.00 in 0% 0 mhos 0 Yes - - -
05/23/2015 19:15 Wet 56.3F - 32F 5 0% 0.40 in 0% 0 mhos 0 None None - -
05/23/2015 19:10 Wet 56.1F - 32F 5 0% 0.00 in 0% 0 mhos 0 None None - -
05/23/2015 19:00 Wet 55.9F - 32F 5 0% 0.00 in 0% 0 mhos 0 None None - -
05/23/2015 19:00 Wet 56.1F - 32F 5 0% 0.00 in 0% 0 mhos 0 None None - -
05/23/2015 18:50 Wet 55.4F - 32F 5 0% 0.00 in 0% 0 mhos 0 None None - -
05/23/2015 18:45 Wet 55.0F - 32F 5 0% 0.00 in 0% 0 mhos 0 None None - -
05/23/2015 18:40 Wet 55.0F - 32F 5 0% 0.00 in 0% 0 mhos 0 None None - -
05/23/2015 18:30 Wet 55.4F - 32F 5 0% 0.00 in 0% 0 mhos 0 None None - -
Date/Time
(MDT)
Sf
Temp Chem Water Layer Surface Precipitation
Sf Sub Frz Factor Pct Depth IcePct Cond Salin Type Intens Accum Rate
05/23/2015 18:30 Wet 55.4F - 32F 5 0% 0.00 in 0% 0 mhos 0 None None - -
05/23/2015 18:20 Wet 55.0F - 32F 5 0% 0.00 in 0% 0 mhos 0 None None - -
05/23/2015 18:15 Wet 55.0F - 32F 5 0% 0.00 in 0% 0 mhos 0 None None - -
05/23/2015 18:10 Wet 54.5F - 32F 5 0% 0.00 in 0% 0 mhos 0 None None - -
05/23/2015 18:00 Wet 54.1F - 32F 5 0% 0.00 in 0% 0 mhos 0 None None - -
05/23/2015 18:00 Wet 54.1F - 32F 5 0% 0.00 in 0% 0 mhos 0 None None - -
05/23/2015 17:50 Wet 54.3F - 32F 5 0% 0.00 in 0% 0 mhos 0 Yes - - -
05/23/2015 17:45 Wet 54.7F - 32F 5 0% 0.00 in 0% 0 mhos 0 Yes - - -
05/23/2015 17:40 Wet 54.9F - 32F 5 0% 0.00 in 0% 0 mhos 0 Yes - - -
05/23/2015 17:30 Wet 54.5F - 32F 5 0% 0.00 in 0% 0 mhos 0 Yes - - -
05/23/2015 17:30 Wet 54.5F - 32F 5 0% 0.00 in 0% 0 mhos 0 Yes - - -
05/23/2015 17:20 Wet 54.1F - 32F 5 0% 0.00 in 0% 0 mhos 0 Yes - - -
05/23/2015 17:15 Wet 54.0F - 32F 5 0% 0.00 in 0% 0 mhos 0 Yes - - -
05/23/2015 17:10 Wet 53.8F - 32F 5 0% 0.00 in 0% 0 mhos 0 Yes - - -
05/23/2015 17:00 Wet 54.3F - 32F 5 0% 0.00 in 0% 0 mhos 0 Yes - - -
Date/Time
(MDT)
Sf
Temp Chem Water Layer Surface Precipitation
Sf Sub Frz Factor Pct Depth IcePct Cond Salin Type Intens Accum Rate
05/23/2015 17:00 Wet 54.3F - 32F 5 0% 0.00 in 0% 0 mhos 0 Yes - - -
05/23/2015 16:50 Wet 55.0F - 32F 5 0% 0.00 in 0% 0 mhos 0 Yes - - -
05/23/2015 16:45 Wet 55.4F - 32F 5 0% 0.00 in 0% 0 mhos 0 Yes - - -
05/23/2015 16:40 Wet 55.9F - 32F 5 0% 0.00 in 0% 0 mhos 0 Yes - - -
05/23/2015 16:30 Wet 57.0F - 32F 5 0% 0.00 in 0% 0 mhos 0 Yes - - -
05/23/2015 16:30 Wet 57.0F - 32F 5 0% 0.00 in 0% 0 mhos 0 Yes - - -
05/23/2015 16:20 Wet 60.1F - 32F 5 0% 0.00 in 0% 0 mhos 0 Yes - - -
05/23/2015 16:15 Wet 62.1F - 32F 5 0% 0.00 in 0% 0 mhos 0 Yes - - -
05/23/2015 16:09 Wet 62.1F - 32F 5 0% 0.00 in 0% 0 mhos 0 None None - -
05/23/2015 15:59 Wet 61.7F - 32F 5 0% 0.00 in 0% 0 mhos 0 Yes - - -
05/23/2015 15:59 Wet 61.7F - 32F 5 0% 0.00 in 0% 0 mhos 0 Yes - - -
05/23/2015 15:49 Wet 61.0F - 32F 20 0% 0.00 in 0% 0 mhos 0 Yes - - -
05/23/2015 15:44 Wet 59.9F - 32F 10 0% 0.00 in 0% 0 mhos 0 Yes - - -
05/23/2015 15:39 Wet 59.9F - 32F 15 0% 0.10 in 0% 0 mhos 0 Yes - - -
05/23/2015 15:30 Wet 59.4F - 32F 15 0% 0.10 in 0% 0 mhos 0 Yes - - -
Date/Time
(MDT)
Sf
Temp Chem Water Layer Surface Precipitation
Sf Sub Frz Factor Pct Depth IcePct Cond Salin Type Intens Accum Rate
05/23/2015 15:29 Wet 59.4F - 32F 15 0% 0.10 in 0% 0 mhos 0 Yes - - -
05/23/2015 15:19 Wet 59.9F - 32F 20 0% 0.10 in 0% 0 mhos 0 Yes - - -
05/23/2015 15:15 Wet 59.5F - 32F 20 0% 0.30 in 0% 0 mhos 0 Yes - - -
05/23/2015 15:09 Wet 58.8F - 32F 5 0% 0.10 in 0% 0 mhos 0 Yes - - -
05/23/2015 15:00 Wet 60.3F - 32F 5 0% 0.00 in 0% 0 mhos 0 Yes - - -
05/23/2015 14:59 Wet 60.3F - 32F 5 0% 0.00 in 0% 0 mhos 0 Yes - - -
05/23/2015 14:49 Wet 59.2F - 32F 5 0% 0.00 in 0% 0 mhos 0 Yes - - -
05/23/2015 14:45 Wet 59.9F - 32F 5 0% 0.00 in 0% 0 mhos 0 Yes - - -
05/23/2015 14:39 Wet 60.1F - 32F 5 0% 0.00 in 0% 0 mhos 0 Yes - - -
05/23/2015 14:30 Wet 61.0F - 32F 5 0% 0.00 in 0% 0 mhos 0 Yes - - -
05/23/2015 14:29 Wet 61.0F - 32F 5 0% 0.00 in 0% 0 mhos 0 Yes - - -
05/23/2015 14:19 Wet 59.4F - 32F 5 0% 0.00 in 0% 0 mhos 0 Yes - - -
05/23/2015 14:15 Wet 59.2F - 32F 5 0% 0.00 in 0% 0 mhos 0 None None - -
05/23/2015 14:09 Wet 59.0F - 32F 5 0% 0.00 in 0% 0 mhos 0 None None - -
05/23/2015 14:00 Wet 58.8F - 32F 5 0% 0.00 in 0% 0 mhos 0 Yes - - -
Date/Time
(MDT)
Sf
Temp Chem Water Layer Surface Precipitation
Sf Sub Frz Factor Pct Depth IcePct Cond Salin Type Intens Accum Rate
05/23/2015 13:59 Wet 58.8F - 32F 5 0% 0.00 in 0% 0 mhos 0 Yes - - -
05/23/2015 13:49 Wet 58.6F - 32F 5 0% 0.00 in 0% 0 mhos 0 Yes - - -
05/23/2015 13:43 Wet 58.5F - 32F 5 0% 0.00 in 0% 0 mhos 0 Yes - - -
05/23/2015 13:39 Wet 58.6F - 32F 5 0% 0.00 in 0% 0 mhos 0 Yes - - -
05/23/2015 13:30 Wet 59.2F - 32F 5 0% 0.00 in 0% 0 mhos 0 Yes - - -
05/23/2015 13:29 Wet 58.8F - 32F 5 0% 0.00 in 0% 0 mhos 0 Yes - - -
05/23/2015 13:19 Wet 59.0F - 32F 5 0% 0.00 in 0% 0 mhos 0 None None - -
05/23/2015 13:15 Wet 58.6F - 32F 5 0% 0.00 in 0% 0 mhos 0 None None - -
05/23/2015 13:09 Wet 58.6F - 32F 5 0% 0.00 in 0% 0 mhos 0 Yes - - -
05/23/2015 13:00 Wet 58.8F - 32F 5 0% 0.00 in 0% 0 mhos 0 Yes - - -
05/23/2015 12:59 Wet 58.8F - 32F 5 0% 0.00 in 0% 0 mhos 0 Yes - - -
05/23/2015 12:49 Wet 59.9F - 32F 5 0% 0.00 in 0% 0 mhos 0 Yes - - -
05/23/2015 12:45 Wet 61.0F - 32F 20 0% 0.00 in 0% 0 mhos 0 Yes - - -
05/23/2015 12:39 Wet 61.9F - 32F 5 0% 0.00 in 0% 0 mhos 0 Yes - - -
05/23/2015 12:29 Wet 64.0F - 32F 5 0% 0.00 in 0% 0 mhos 0 Yes - - -
Date/Time
(MDT)
Sf
Temp Chem Water Layer Surface Precipitation
Sf Sub Frz Factor Pct Depth IcePct Cond Salin Type Intens Accum Rate
05/23/2015 12:29 Wet 64.0F - 32F 5 0% 0.00 in 0% 0 mhos 0 Yes - - -
05/23/2015 12:19 Dry 68.7F - - - - - - 0 mhos 0 Yes - - -
05/23/2015 12:14 Dry 68.5F - - - - - - 0 mhos 0 None None - -
05/23/2015 12:09 Dry 68.7F - - - - - - 0 mhos 0 None None - -
05/23/2015 11:59 Dry 67.8F - - - - - - 0 mhos 0 None None - -
05/23/2015 11:59 Dry 67.8F - - - - - - 0 mhos 0 None None - -
05/23/2015 11:49 Dry 65.3F - - - - - - 0 mhos 0 Yes - - -
05/23/2015 11:45 Dry 65.1F - - - - - - 0 mhos 0 None None - -
05/23/2015 11:39 Dry 64.8F - - - - - - 0 mhos 0 None None - -
05/23/2015 11:29 Dry 64.6F - - - - - - 0 mhos 0 None None - -
05/23/2015 11:29 Dry 64.6F - - - - - - 0 mhos 0 None None - -
05/23/2015 11:19 Dry 65.1F - - - - - - 0 mhos 0 None None - -
05/23/2015 11:15 Dry 64.8F - - - - - - 0 mhos 0 None None - -
05/23/2015 11:09 Dry 64.9F - - - - - - 0 mhos 0 None None - -
05/23/2015 11:00 Dry 65.3F - - - - - - 0 mhos 0 None None - -
Date/Time
(MDT)
Sf
Temp Chem Water Layer Surface Precipitation
Sf Sub Frz Factor Pct Depth IcePct Cond Salin Type Intens Accum Rate
05/23/2015 10:59 Dry 65.3F - - - - - - 0 mhos 0 None None - -
05/23/2015 10:49 Dry 66.4F - - - - - - 0 mhos 0 None None - -
05/23/2015 10:45 Dry 67.8F - - - - - - 0 mhos 0 None None - -
05/23/2015 10:39 Dry 68.4F - - - - - - 0 mhos 0 None None - -
05/23/2015 10:30 Dry 67.8F - - - - - - 0 mhos 0 None None - -
05/23/2015 10:29 Dry 67.6F - - - - - - 0 mhos 0 None None - -
05/23/2015 10:19 Dry 65.3F - - - - - - 0 mhos 0 None None - -
05/23/2015 10:16 Dry 65.1F - - - - - - 0 mhos 0 None None - -
05/23/2015 10:08 Dry 64.4F - - - - - - 0 mhos 0 None None - -
05/23/2015 10:01 Dry 64.4F - - - - - - 0 mhos 0 None None - -
05/23/2015 09:58 Dry 64.9F - - - - - - 0 mhos 0 None None - -
05/23/2015 09:48 Dry 64.4F - - - - - - 0 mhos 0 None None - -
05/23/2015 09:46 Dry 64.6F - - - - - - 0 mhos 0 None None - -
05/23/2015 09:38 Dry 66.0F - - - - - - 0 mhos 0 None None - -
05/23/2015 09:30 Dry 65.7F - - - - - - 0 mhos 0 None None - -
Date/Time
(MDT)
Sf
Temp Chem Water Layer Surface Precipitation
Sf Sub Frz Factor Pct Depth IcePct Cond Salin Type Intens Accum Rate
05/23/2015 09:28 Dry 65.7F - - - - - - 0 mhos 0 None None - -
05/23/2015 09:18 Dry 65.8F - - - - - - 0 mhos 0 None None - -
05/23/2015 09:15 Dry 66.4F - - - - - - 0 mhos 0 None None - -
05/23/2015 09:08 Dry 66.7F - - - - - - 0 mhos 0 None None - -
05/23/2015 09:00 Dry 65.8F - - - - - - 0 mhos 0 None None - -
05/23/2015 08:58 Dry 65.5F - - - - - - 0 mhos 0 None None - -
05/23/2015 08:48 Dry 64.9F - - - - - - 0 mhos 0 None None - -
05/23/2015 08:46 Dry 64.8F - - - - - - 0 mhos 0 Yes - - -
05/23/2015 08:38 Dry 64.8F - - - - - - 0 mhos 0 None None - -
05/23/2015 08:30 Dry 64.9F - - - - - - 0 mhos 0 None None - -
05/23/2015 08:28 Dry 64.9F - - - - - - 0 mhos 0 None None - -
05/23/2015 08:18 Dry 64.9F - - - - - - 0 mhos 0 None None - -
05/23/2015 08:15 Dry 65.7F - - - - - - 0 mhos 0 None None - -
05/23/2015 08:08 Dry 67.8F - - - - - - 0 mhos 0 None None - -
05/23/2015 07:59 Dry 69.8F - - - - - - 0 mhos 0 None None - -
Date/Time
(MDT)
Sf
Temp Chem Water Layer Surface Precipitation
Sf Sub Frz Factor Pct Depth IcePct Cond Salin Type Intens Accum Rate
05/23/2015 07:58 Dry 69.4F - - - - - - 0 mhos 0 None None - -
05/23/2015 07:48 Dry 68.5F - - - - - - 0 mhos 0 None None - -
05/23/2015 07:43 Dry 68.0F - - - - - - 0 mhos 0 None None - -
05/23/2015 07:38 Dry 66.2F - - - - - - 0 mhos 0 None None - -
05/23/2015 07:30 Dry 63.9F - - - - - - 0 mhos 0 None None - -
05/23/2015 07:28 Dry 63.3F - - - - - - 0 mhos 0 None None - -
05/23/2015 07:18 Dry 58.8F - - - - - - 0 mhos 0 None None - -
05/23/2015 07:16 Dry 58.5F - - - - - - 0 mhos 0 None None - -
05/23/2015 07:08 Dry 57.6F - - - - - - 0 mhos 0 None None - -
05/23/2015 07:00 Dry 57.6F - - - - - - 0 mhos 0 None None - -
05/23/2015 06:58 Dry 57.4F - - - - - - 0 mhos 0 None None - -
05/23/2015 06:48 Dry 56.5F - - - - - - 0 mhos 0 None None - -
05/23/2015 06:45 Dry 56.3F - - - - - - 0 mhos 0 None None - -
05/23/2015 06:38 Dry 55.6F - - - - - - 0 mhos 0 None None - -
05/23/2015 06:30 Dry 55.4F - - - - - - 0 mhos 0 Yes - - -
Date/Time
(MDT)
Sf
Temp Chem Water Layer Surface Precipitation
Sf Sub Frz Factor Pct Depth IcePct Cond Salin Type Intens Accum Rate
05/23/2015 06:28 Dry 55.8F - - - - - - 0 mhos 0 Yes - - -
05/23/2015 06:18 Dry 55.0F - - - - - - 0 mhos 0 None None - -
05/23/2015 06:16 Dry 55.0F - - - - - - 0 mhos 0 None None - -
05/23/2015 06:08 Dry 54.7F - - - - - - 0 mhos 0 None None - -
05/23/2015 06:00 Dry 54.5F - - - - - - 0 mhos 0 None None - -
05/23/2015 05:58 Dry 54.7F - - - - - - 0 mhos 0 None None - -
05/23/2015 05:48 Dry 55.0F - - - - - - 0 mhos 0 None None - -
05/23/2015 05:45 Dry 55.2F - - - - - - 0 mhos 0 None None - -
05/23/2015 05:38 Dry 55.8F - - - - - - 0 mhos 0 None None - -
05/23/2015 05:30 Dry 56.3F - - - - - - 0 mhos 0 None None - -
05/23/2015 05:28 Dry 56.3F - - - - - - 0 mhos 0 None None - -
05/23/2015 05:18 Dry 56.7F - - - - - - 0 mhos 0 None None - -
05/23/2015 05:15 Dry 56.8F - - - - - - 0 mhos 0 None None - -
05/23/2015 05:08 Dry 56.8F - - - - - - 0 mhos 0 None None - -
05/23/2015 04:59 Dry 57.2F - - - - - - 0 mhos 0 None None - -
Date/Time
(MDT)
Sf
Temp Chem Water Layer Surface Precipitation
Sf Sub Frz Factor Pct Depth IcePct Cond Salin Type Intens Accum Rate
05/23/2015 04:58 Dry 57.2F - - - - - - 0 mhos 0 None None - -
05/23/2015 04:48 Dry 57.2F - - - - - - 0 mhos 0 None None - -
05/23/2015 04:45 Dry 57.4F - - - - - - 0 mhos 0 None None - -
05/23/2015 04:38 Dry 57.4F - - - - - - 0 mhos 0 None None - -
05/23/2015 04:30 Dry 57.4F - - - - - - 0 mhos 0 None None - -
05/23/2015 04:27 Dry 57.4F - - - - - - 0 mhos 0 None None - -
05/23/2015 04:17 Dry 57.2F - - - - - - 0 mhos 0 None None - -
05/23/2015 04:15 Dry 57.2F - - - - - - 0 mhos 0 None None - -
05/23/2015 04:07 Dry 57.2F - - - - - - 0 mhos 0 None None - -
05/23/2015 03:59 Dry 57.6F - - - - - - 0 mhos 0 None None - -
05/23/2015 03:57 Dry 57.6F - - - - - - 0 mhos 0 None None - -
05/23/2015 03:47 Dry 57.2F - - - - - - 0 mhos 0 None None - -
05/23/2015 03:45 Dry 57.2F - - - - - - 0 mhos 0 None None - -
05/23/2015 03:37 Dry 57.2F - - - - - - 0 mhos 0 None None - -
05/23/2015 03:30 Dry 56.7F - - - - - - 0 mhos 0 None None - -
Date/Time
(MDT)
Sf
Temp Chem Water Layer Surface Precipitation
Sf Sub Frz Factor Pct Depth IcePct Cond Salin Type Intens Accum Rate
05/23/2015 03:27 Dry 56.5F - - - - - - 0 mhos 0 None None - -
05/23/2015 03:17 Dry 55.9F - - - - - - 0 mhos 0 None None - -
05/23/2015 03:15 Dry 55.8F - - - - - - 0 mhos 0 None None - -
05/23/2015 03:07 Dry 55.9F - - - - - - 0 mhos 0 None None - -
05/23/2015 02:59 Dry 55.9F - - - - - - 0 mhos 0 None None - -
05/23/2015 02:57 Dry 56.1F - - - - - - 0 mhos 0 None None - -
05/23/2015 02:47 Dry 56.3F - - - - - - 0 mhos 0 None None - -
05/23/2015 02:45 Dry 56.3F - - - - - - 0 mhos 0 None None - -
05/23/2015 02:37 Dry 56.3F - - - - - - 0 mhos 0 None None - -
05/23/2015 02:30 Dry 56.5F - - - - - - 0 mhos 0 None None - -
05/23/2015 02:27 Dry 56.7F - - - - - - 0 mhos 0 None None - -
05/23/2015 02:17 Dry 57.0F - - - - - - 0 mhos 0 None None - -
05/23/2015 02:15 Dry 57.2F - - - - - - 0 mhos 0 None None - -
05/23/2015 02:07 Dry 57.6F - - - - - - 0 mhos 0 None None - -
05/23/2015 02:00 Dry 57.6F - - - - - - 0 mhos 0 None None - -
Date/Time
(MDT)
Sf
Temp Chem Water Layer Surface Precipitation
Sf Sub Frz Factor Pct Depth IcePct Cond Salin Type Intens Accum Rate
05/23/2015 01:57 Dry 57.6F - - - - - - 0 mhos 0 None None - -
05/23/2015 01:47 Dry 57.7F - - - - - - 0 mhos 0 None None - -
05/23/2015 01:45 Dry 57.9F - - - - - - 0 mhos 0 None None - -
05/23/2015 01:37 Dry 58.5F - - - - - - 0 mhos 0 None None - -
05/23/2015 01:30 Dry 58.5F - - - - - - 0 mhos 0 None None - -
05/23/2015 01:27 Dry 58.6F - - - - - - 0 mhos 0 None None - -
05/23/2015 01:17 Dry 58.8F - - - - - - 0 mhos 0 None None - -
05/23/2015 01:14 Dry 58.8F - - - - - - 0 mhos 0 None None - -
05/23/2015 01:07 Dry 59.4F - - - - - - 0 mhos 0 None None - -
05/23/2015 01:00 Dry 59.5F - - - - - - 0 mhos 0 None None - -
05/23/2015 00:57 Dry 59.7F - - - - - - 0 mhos 0 None None - -
05/23/2015 00:47 Dry 59.9F - - - - - - 0 mhos 0 None None - -
05/23/2015 00:44 Dry 59.9F - - - - - - 0 mhos 0 None None - -
05/23/2015 00:37 Dry 60.1F - - - - - - 0 mhos 0 None None - -
05/23/2015 00:29 Dry 60.1F - - - - - - 0 mhos 0 None None - -
Date/Time
(MDT)
Sf
Temp Chem Water Layer Surface Precipitation
Sf Sub Frz Factor Pct Depth IcePct Cond Salin Type Intens Accum Rate
05/23/2015 00:27 Dry 59.9F - - - - - - 0 mhos 0 None None - -
05/23/2015 00:17 Dry 60.3F - - - - - - 0 mhos 0 None None - -
05/23/2015 00:14 Dry 60.4F - - - - - - 0 mhos 0 None None - -
05/23/2015 00:07 Dry 60.8F - - - - - - 0 mhos 0 None None - -
05/22/2015 23:58 Dry 60.8F - - - - - - 0 mhos 0 None None - -
05/22/2015 23:57 Dry 60.8F - - - - - - 0 mhos 0 None None - -
05/22/2015 23:47 Dry 61.2F - - - - - - 0 mhos 0 None None - -
05/22/2015 23:44 Dry 61.2F - - - - - - 0 mhos 0 None None - -
05/22/2015 23:37 Dry 61.3F - - - - - - 0 mhos 0 None None - -
05/22/2015 23:30 Dry 61.9F - - - - - - 0 mhos 0 None None - -
05/22/2015 23:27 Dry 62.1F - - - - - - 0 mhos 0 None None - -
05/22/2015 23:17 Dry 62.4F - - - - - - 0 mhos 0 None None - -
05/22/2015 23:14 Dry 62.8F - - - - - - 0 mhos 0 None None - -
05/22/2015 23:07 Dry 63.0F - - - - - - 0 mhos 0 None None - -
Change End Date:
Copyright © 1998-2005 Surface Systems, Inc.
All Rights Reserved
Send comments about the data to:
SCAN Web ® is a registered trademark of Surface Systems, Inc.
SCAN Web Version 5.6